Location: Unspecified
(0.0000°N, 0.0000°E)
Time: 21:55:23
(UTC+00:00)

Courier 1B Rocket - Pass Details

Date: 20 October 2021
Orbit: 920 x 1202 km, 28.2° (Epoch: 06 December)

Event Time Altitude Azimuth Distance (km) Brightness Sun altitude
Exits shadow 03:24:37 21° 191° (SSW) 2,361 6.9 -34.4°
Drops below altitude 10° 03:29:03 10° 157° (SSE) 3,110 8.0 -33.3°
Sets 03:32:45 0° 142° (SE) 4,092 8.9 -32.4°
